Wetbulb
64.55 64.80 65.71 66.17 64.56 65.22 65.81 66.29 66.73 67.45 67.42 67.58 68.12 69.20 68.77 68.97 69.70 69.86 69.88 69.74 69.83 70.45 71.35 72.28 73.72 73.42 73.27 73.64 72.64 72.62 72.98 72.35 73.01
62.13 64.72 65.37 65.61 64.43 65.61 65.80 66.22 66.26 67.32 67.51 67.85 68.04 68.87 69.27 68.41 68.67 69.24 69.71 70.53 70.74 70.90 72.14 72.93 73.76 73.89 73.42 73.42 73.14 72.93 72.87 72.37 72.61
60.06 64.12 64.28 65.15 65.24 65.08 66.14 66.49 66.49 67.72 68.51 68.03 68.31 68.80 69.19 69.25 68.74 68.96 69.48 70.49 70.68 71.04 71.90 72.59 73.51 73.59 73.63 73.47 73.30 73.63 73.24 72.84 72.90
60.90 61.12 64.12 64.41 65.78 65.02 66.17 66.87 66.75 66.81 68.29 68.34 68.25 68.94 69.29 69.34 69.47 69.51 69.19 69.46 70.70 71.40 71.97 72.25 72.59 73.58 73.83 73.28 72.93 73.38 72.30 72.51 72.90
60.57 62.34 63.21 64.72 65.73 65.26 65.54 65.63 66.23 66.61 67.65 68.41 68.69 68.86 69.12 68.99 69.13 70.05 70.15 69.38 69.93 70.93 71.50 72.03 72.49 72.77 73.68 73.75 73.52 73.35 73.45 72.95 73.07
58.67 59.93 61.24 63.09 64.34 65.11 65.86 66.23 66.45 66.40 67.27 68.48 69.01 68.87 69.12 68.94 68.56 68.35 69.45 70.18 70.19 70.29 70.65 71.05 71.74 72.54 72.61 73.43 73.67 73.43 73.49 73.42 73.22
56.41 57.63 59.01 60.05 60.92 62.39 64.87 66.33 67.06 67.36 67.04 67.87 69.00 69.08 68.87 68.51 68.53 68.56 68.85 69.62 70.19 69.92 70.47 70.63 70.62 71.72 72.36 73.25 73.73 73.63 73.71 73.28 73.28
54.48 55.82 56.85 58.34 59.73 61.45 62.92 64.42 66.35 67.10 67.30 67.85 68.44 69.04 69.16 68.94 69.24 69.31 69.22 69.21 69.33 70.47 70.39 70.35 70.67 70.96 72.19 73.24 73.74 73.57 73.60 73.63 73.31
51.29 53.74 55.87 57.12 58.59 59.91 61.07 63.43 65.21 66.91 67.54 67.80 68.84 68.53 68.55 69.99 70.22 69.82 69.15 68.83 68.87 69.08 69.99 70.22 69.99 70.01 71.09 72.28 72.92 68.73 67.85 72.13 73.44
47.45 49.39 53.12 55.84 56.96 58.03 59.88 61.48 63.74 63.86 65.93 68.23 68.22 69.08 68.96 69.07 70.13 70.01 70.01 69.61 68.84 68.32 68.52 69.52 69.74 69.47 70.04 70.53 72.33 65.97 66.31 68.05 73.80
45.17 46.61 48.39 52.01 56.28 57.34 58.91 61.37 61.46 62.10 66.71 68.97 68.13 68.12 69.25 69.63 69.74 69.90 70.57 70.65 69.61 68.67 68.53 68.22 68.52 69.04 69.61 69.80 70.49 64.58 64.13 66.71 72.70
45.46 46.41 47.67 49.88 53.68 57.69 58.91 59.68 60.40 61.05 64.59 65.10 65.98 66.20 67.43 69.62 70.31 70.04 70.35 70.28 70.84 70.62 69.51 68.71 68.38 68.95 68.66 69.11 69.82 62.27 62.42 65.02 71.81
45.71 46.14 47.38 48.87 51.03 56.03 57.65 58.04 59.75 59.52 61.96 62.36 62.17 63.50 64.68 65.60 67.29 70.61 71.28 70.62 70.73 71.21 71.54 70.65 69.96 69.60 69.58 66.62 68.65 61.99 60.31 63.26 71.11
45.50 45.98 47.04 49.47 50.68 53.29 56.72 58.44 58.90 57.74 59.27 59.56 60.58 62.54 64.05 64.99 65.91 67.59 70.33 71.60 72.10 71.63 71.56 71.59 71.71 70.74 70.93 70.58 68.49 68.94 58.76 59.18 70.70
44.09 44.52 46.59 49.36 49.24 50.79 54.96 58.05 58.28 57.24 57.10 59.49 59.58 60.27 61.40 63.96 65.19 65.42 67.54 68.33 69.93 72.19 72.52 71.78 71.70 71.66 71.44 71.79 71.27 62.92 59.88 57.46 60.22
43.26 44.14 46.71 48.59 48.61 50.06 53.12 56.55 57.32 56.24 57.03 57.58 56.83 57.84 59.21 60.80 63.40 64.32 65.77 66.64 67.79 70.46 71.89 72.07 71.68 71.59 71.31 71.66 72.73 72.19 59.46 57.18 57.18
42.57 43.89 45.86 47.16 47.30 48.86 51.33 55.00 57.33 55.71 56.42 56.04 54.70 55.11 56.56 59.02 60.56 61.69 63.15 65.06 65.83 67.79 71.44 71.52 71.64 71.64 71.48 71.89 72.41 72.68 73.03 67.18 63.15
43.08 44.96 45.87 47.08 47.03 47.75 50.41 55.03 55.14 54.15 53.92 52.75 51.52 53.07 54.40 56.81 59.23 59.11 59.59 61.60 63.18 64.95 67.92 70.08 71.90 72.18 72.38 71.92 71.41 71.96 67.79 67.90 70.54
45.74 45.38 46.29 46.61 47.06 48.38 50.41 54.33 54.07 51.96 51.84 50.46 50.14 50.24 52.26 54.67 55.73 56.57 57.06 59.33 61.11 56.29 54.86 52.94 52.22 54.39 66.00 72.47 64.14 58.62 54.17 53.30 52.40
46.02 46.87 47.89 49.16 49.28 50.01 51.60 52.76 51.06 50.00 49.39 48.70 48.62 48.95 50.46 52.99 52.51 53.88 56.15 58.62 58.68 58.95 60.09 54.21 51.31 48.95 50.58 50.58 58.68 53.12 50.22 50.40 52.03
MSLP
1009.02 1009.43 1009.91 1010.58 1011.05 1011.76 1012.34 1012.92 1013.79 1014.43 1015.28 1015.82 1016.57 1017.27 1017.58 1017.82 1018.07 1018.48 1018.84 1019.20 1019.56 1019.86 1020.10 1020.13 1020.24 1020.60 1020.99 1021.36 1021.82 1022.02 1022.25 1022.44 1022.57
1009.56 1009.68 1009.72 1010.06 1010.46 1011.18 1011.86 1012.54 1013.21 1013.81 1014.53 1015.14 1015.84 1016.43 1017.06 1017.48 1017.80 1018.13 1018.44 1018.76 1019.14 1019.34 1019.51 1019.60 1019.85 1020.23 1020.61 1021.01 1021.43 1021.76 1021.99 1022.35 1022.48
1010.88 1009.78 1009.62 1009.78 1010.04 1010.59 1011.23 1011.89 1012.54 1013.28 1013.92 1014.45 1014.72 1015.57 1016.22 1016.79 1017.13 1017.65 1017.94 1018.34 1018.68 1018.88 1019.11 1019.35 1019.62 1019.95 1020.26 1020.64 1020.98 1021.28 1021.64 1022.05 1022.14
1011.42 1010.05 1009.82 1010.00 1010.21 1010.42 1010.83 1011.68 1012.52 1013.10 1013.67 1014.18 1014.73 1015.48 1016.12 1016.39 1016.92 1017.18 1017.76 1017.92 1018.20 1018.46 1018.69 1019.02 1019.38 1019.70 1020.02 1020.42 1020.70 1020.85 1021.28 1021.55 1021.87
1012.36 1011.17 1010.69 1010.74 1010.79 1010.94 1011.36 1011.71 1012.20 1012.79 1013.46 1013.95 1014.14 1014.52 1015.18 1015.70 1016.16 1016.74 1017.24 1017.65 1017.66 1017.96 1018.26 1018.48 1018.89 1019.32 1019.68 1019.94 1020.29 1020.62 1020.94 1021.22 1021.41
1014.13 1013.38 1012.81 1012.46 1012.27 1012.13 1012.06 1012.05 1012.33 1012.68 1013.11 1013.50 1013.93 1014.43 1014.94 1015.44 1015.63 1015.89 1016.49 1017.00 1017.36 1017.52 1017.67 1017.92 1018.33 1018.84 1019.26 1019.56 1019.78 1020.15 1020.40 1020.66 1020.95
1015.85 1015.28 1014.95 1014.42 1014.02 1013.80 1013.43 1013.04 1012.86 1012.74 1013.08 1013.26 1013.64 1014.00 1014.38 1014.70 1015.09 1015.43 1015.57 1015.94 1016.59 1016.98 1017.12 1017.40 1017.57 1018.01 1018.54 1018.88 1019.16 1019.50 1019.83 1020.16 1020.42
1017.08 1016.60 1016.23 1015.92 1015.51 1015.14 1014.74 1014.19 1013.74 1013.39 1013.04 1012.77 1013.00 1013.37 1013.65 1013.78 1014.05 1014.57 1015.11 1015.62 1015.85 1016.20 1016.67 1016.89 1017.10 1017.29 1017.68 1018.16 1018.52 1018.78 1019.10 1019.44 1019.71
1018.61 1018.14 1017.62 1017.08 1016.47 1015.99 1015.61 1015.14 1014.60 1014.10 1013.57 1012.91 1012.57 1012.60 1012.54 1012.78 1013.28 1013.84 1014.30 1014.69 1015.17 1015.51 1015.87 1016.27 1016.63 1016.83 1016.92 1017.19 1017.56 1017.78 1018.13 1018.58 1018.99
1019.91 1019.40 1018.76 1018.05 1017.49 1016.89 1016.37 1015.80 1015.19 1014.47 1013.82 1013.12 1012.70 1012.55 1012.51 1012.64 1012.86 1013.00 1013.33 1013.73 1014.41 1014.79 1014.92 1015.34 1015.78 1015.89 1016.24 1016.42 1016.60 1016.85 1017.20 1017.57 1018.01
1020.52 1020.08 1019.44 1018.72 1018.15 1017.59 1016.92 1016.21 1015.49 1014.80 1013.73 1013.08 1012.51 1012.64 1012.41 1012.34 1012.38 1012.33 1012.42 1012.90 1013.33 1013.76 1014.20 1014.46 1014.81 1015.16 1015.20 1015.46 1015.67 1015.96 1016.31 1016.62 1017.03
1021.27 1020.72 1020.09 1019.50 1018.74 1017.94 1017.24 1016.56 1015.99 1015.24 1014.16 1013.11 1013.15 1013.14 1012.88 1012.30 1012.06 1012.20 1012.36 1012.30 1012.56 1012.98 1013.52 1013.63 1013.75 1014.05 1014.38 1014.50 1014.58 1014.90 1015.32 1015.92 1016.28
1021.39 1020.99 1020.26 1019.65 1018.94 1018.16 1017.53 1016.94 1016.55 1016.06 1015.48 1015.04 1014.57 1013.94 1013.36 1012.78 1012.14 1012.08 1011.81 1011.79 1011.97 1012.31 1012.54 1012.60 1012.84 1013.05 1013.14 1013.16 1013.38 1013.76 1014.11 1014.89 1015.37
1021.48 1021.20 1020.59 1019.72 1019.14 1018.44 1017.72 1017.16 1016.72 1016.40 1016.15 1015.80 1014.75 1014.14 1013.39 1012.56 1012.36 1012.23 1011.74 1011.47 1011.54 1011.90 1012.00 1012.12 1011.99 1011.97 1012.06 1012.32 1012.40 1012.46 1012.96 1013.55 1014.29
1021.32 1020.71 1020.09 1019.90 1019.27 1018.47 1017.75 1017.30 1016.83 1016.48 1016.08 1015.91 1015.40 1014.25 1013.72 1013.20 1012.76 1012.20 1011.76 1011.45 1011.36 1011.22 1011.23 1011.33 1011.14 1011.20 1011.16 1011.04 1011.25 1011.54 1011.83 1012.40 1012.86
1020.90 1020.74 1019.94 1019.53 1019.41 1018.56 1017.46 1017.13 1016.84 1016.51 1016.00 1015.74 1015.66 1015.00 1014.03 1013.05 1013.00 1012.40 1011.74 1011.49 1011.34 1010.80 1010.36 1010.24 1010.20 1010.23 1010.02 1009.94 1010.16 1010.33 1010.77 1011.21 1011.69
1020.63 1020.32 1019.90 1019.29 1018.69 1018.38 1017.52 1016.63 1016.34 1016.29 1016.22 1015.92 1015.46 1014.74 1014.01 1013.33 1012.60 1012.35 1011.94 1011.50 1011.05 1010.36 1009.58 1009.36 1009.22 1009.05 1009.00 1008.80 1009.19 1009.22 1009.61 1010.35 1010.99
1020.21 1019.72 1019.42 1019.05 1018.28 1017.44 1017.10 1016.61 1015.80 1015.66 1015.93 1015.87 1015.54 1015.00 1014.16 1013.71 1012.53 1012.37 1011.76 1011.40 1010.95 1009.43 1008.90 1008.81 1008.57 1008.14 1008.13 1007.81 1007.90 1007.90 1008.58 1009.07 1009.57
1019.64 1019.09 1018.61 1018.15 1017.63 1016.91 1016.15 1015.99 1015.53 1015.46 1015.60 1015.64 1015.50 1014.90 1014.04 1013.41 1012.77 1012.42 1010.47 1011.09 1008.72 1009.06 1009.38 1008.31 1007.87 1007.73 1007.19 1006.59 1006.51 1007.03 1007.66 1008.37 1008.91
1018.84 1018.51 1018.12 1017.31 1016.64 1016.13 1015.67 1015.28 1015.18 1015.24 1015.32 1015.18 1014.93 1014.85 1014.54 1013.75 1012.64 1013.08 1012.26 1011.48 1010.41 1009.76 1008.23 1008.00 1006.97 1006.90 1006.48 1006.25 1005.72 1006.48 1006.89 1007.39 1008.42
Wind_Speed
13 14 14 16 14 16 16 18 17 17 15 14 12 11 12 9 8 7 6 7 4 5 5 5 4 5 4 5 4 4 4 2 3
5 9 13 13 11 15 15 16 17 18 17 16 13 14 11 10 8 8 8 7 5 5 5 4 5 5 6 5 5 5 4 4 4
11 7 7 10 9 15 14 15 16 17 17 18 16 16 13 11 11 9 8 8 8 7 5 5 5 6 6 6 6 6 5 4 4
16 9 9 8 6 10 14 13 13 15 14 15 13 12 11 10 9 9 7 9 9 8 5 6 6 7 7 7 7 6 5 5 5
20 18 6 5 5 6 6 7 9 10 11 12 13 13 13 11 9 9 9 9 9 9 9 6 7 7 7 7 7 7 8 8 6
18 20 18 14 11 5 5 5 5 7 9 9 10 7 10 9 9 11 11 10 8 9 10 9 8 7 8 8 8 8 8 9 8
16 16 16 14 14 12 9 6 3 4 8 7 8 10 11 11 11 11 12 12 11 11 11 10 10 9 9 8 8 9 8 9 9
17 17 17 15 14 12 11 10 8 7 5 12 11 13 13 14 13 12 10 10 10 11 11 11 11 10 10 9 8 8 9 9 10
15 16 16 15 14 14 13 11 9 9 8 6 10 14 16 14 13 11 12 11 11 10 11 11 10 11 12 12 9 12 15 11 10
11 13 14 15 13 12 12 12 12 11 11 7 5 9 11 11 11 12 13 13 11 12 12 10 13 13 12 12 13 15 17 18 11
10 12 13 13 12 12 12 11 12 13 11 3 1 3 7 12 13 14 13 12 13 12 11 12 11 12 13 13 12 15 18 19 14
8 9 11 10 11 11 10 10 12 13 11 10 8 7 7 5 10 12 11 12 12 11 10 11 12 11 12 14 14 17 19 15 13
10 12 11 12 13 12 10 10 8 10 9 7 6 8 8 6 7 6 11 11 12 11 11 12 10 12 13 15 15 15 19 17 11
11 9 13 14 12 11 11 9 7 7 7 7 8 8 10 7 5 6 5 4 8 8 10 11 12 13 13 14 14 15 18 20 14
11 15 13 11 13 12 11 8 7 8 7 6 9 8 7 8 7 4 5 6 5 9 12 13 14 13 12 11 13 15 16 20 23
15 15 14 11 9 15 15 10 5 7 7 7 7 9 8 5 7 7 6 6 8 8 10 13 12 11 11 10 9 11 17 19 21
15 14 12 14 14 11 15 13 8 4 5 6 9 9 9 8 6 7 7 5 6 6 7 9 11 11 12 9 9 10 9 10 11
14 14 13 12 15 14 14 14 9 5 3 5 7 8 8 9 6 6 8 7 8 6 6 9 10 12 11 10 11 12 11 12 10
14 13 14 13 15 16 16 14 8 5 4 4 5 8 7 6 7 9 7 10 10 8 17 17 17 18 14 10 16 12 15 17 14
17 15 14 13 16 16 15 7 7 4 5 7 9 7 7 6 5 9 7 8 6 12 8 15 16 18 20 16 14 16 15 17 16
Wind_Direction
208 199 195 201 189 188 185 184 187 188 191 193 182 193 196 194 185 182 181 181 177 189 197 203 182 197 197 200 182 188 183 200 220
232 207 197 190 175 187 187 188 190 191 192 197 189 195 193 194 189 186 187 179 182 188 195 202 184 192 194 200 197 188 181 200 218
324 234 186 187 179 185 192 194 191 193 196 196 193 194 192 197 195 198 191 179 190 188 196 193 180 194 198 199 202 187 183 196 205
342 270 201 196 200 187 190 192 193 197 196 198 194 194 208 192 197 189 198 196 195 195 182 185 192 196 205 193 206 206 189 203 201
12 23 35 96 113 146 168 169 180 184 197 201 204 197 192 195 186 190 195 211 201 186 199 184 197 195 202 211 201 198 202 204 209
23 25 25 30 35 54 105 125 173 170 184 197 198 179 198 208 198 182 200 209 210 200 196 195 193 190 202 209 210 203 210 212 209
30 30 22 23 22 18 16 10 338 194 185 181 181 189 198 203 208 211 208 203 205 206 204 205 196 198 205 208 207 206 209 211 216
23 22 21 17 12 9 5 9 6 349 257 196 191 198 198 209 208 208 212 215 209 207 207 214 209 201 201 207 208 208 205 207 215
12 11 12 9 7 2 0 348 338 335 328 299 216 205 207 208 206 203 208 210 209 199 210 211 206 212 205 204 213 206 201 198 209
2 354 353 358 358 352 344 341 336 324 311 296 287 230 212 208 209 204 208 209 208 214 213 203 216 210 207 214 215 203 206 205 213
355 344 343 340 341 342 337 328 337 329 326 322 9 290 260 218 217 217 212 208 208 212 211 212 210 216 211 214 219 206 209 210 217
337 329 323 320 324 322 325 331 334 333 336 15 15 10 353 338 228 227 224 215 211 219 214 213 216 215 210 214 224 207 210 205 218
327 324 320 319 321 316 321 327 329 332 329 342 343 330 328 333 342 315 223 213 220 216 219 220 220 224 219 212 220 211 206 202 220
309 305 310 315 314 310 308 312 318 321 317 313 324 312 307 331 343 318 305 274 219 217 224 233 226 223 226 225 217 219 202 200 213
306 312 313 315 313 305 302 300 307 310 311 314 311 316 310 302 298 311 302 300 277 261 234 229 230 229 229 225 223 219 204 201 207
300 301 296 305 297 301 299 293 270 295 304 317 313 301 299 303 291 294 283 277 276 274 240 232 230 227 228 228 222 221 212 202 208
292 294 294 299 300 285 286 294 276 251 295 312 314 312 311 306 301 291 284 274 259 266 258 231 232 228 229 224 227 224 212 210 207
280 282 285 279 286 286 275 277 275 293 295 321 309 302 301 292 311 297 293 271 271 272 285 264 235 233 228 211 223 225 210 207 203
275 275 278 275 272 278 282 266 247 283 308 319 301 302 296 304 303 301 322 291 320 263 255 269 265 257 230 224 235 193 204 216 213
275 278 284 285 278 271 275 265 284 295 317 321 306 283 271 271 321 281 276 276 290 298 290 256 259 248 238 243 246 206 210 210 211